When you browse on this site, cookies collect data to enhance your experience and personalize the content and advertising you see.
Visit our Privacy Policy to learn more. By continuing to use the site, you agree to this use of cookies and data.
  • In Spain
  • List of Countries
  • For 7 days
  • Water Temperature
  • Satellite Maps
  • Weather Map
  • Weather Widgets
  • user-avatar
    Login

    Hourly Weather Escaldes-Engordany

    Today, 23 March, Saturday

    Time Temperature Precipitation Wind Pressure Humidity
    00:00 +4°C° 0 mm 1 mps 643 mmHg 76%
    01:00 +4°C° 0 mm 1 mps 643 mmHg 75%
    02:00 +4°C° 0 mm 1 mps 642 mmHg 74%
    03:00 +3°C° 0 mm 1 mps 642 mmHg 74%
    04:00 +3°C° 0 mm 1 mps 642 mmHg 73%
    05:00 +3°C° 0 mm 1 mps 642 mmHg 71%
    06:00 +3°C° 0 mm 1 mps 642 mmHg 69%
    07:00 +6°C° 0 mm 1 mps 643 mmHg 61%
    08:00 +8°C° 0 mm 0 mps 644 mmHg 53%
    09:00 +11°C° 0 mm 0 mps 645 mmHg 44%
    10:00 +12°C° 0 mm 0 mps 645 mmHg 42%
    11:00 +13°C° 0 mm 0 mps 646 mmHg 39%
    12:00 +16°C° 0 mm 1 mps 646 mmHg 35%
    13:00 +15°C° 0 mm 1 mps 645 mmHg 36%
    14:00 +15°C° 0 mm 1 mps 645 mmHg 37%
    15:00 +15°C° 0 mm 1 mps 644 mmHg 38%
    16:00 +13°C° 0 mm 1 mps 644 mmHg 45%
    17:00 +11°C° 0 mm 1 mps 643 mmHg 52%
    18:00 +9°C° 0 mm 1 mps 642 mmHg 60%
    19:00 +8°C° 0 mm 1 mps 642 mmHg 64%
    20:00 +7°C° 0 mm 1 mps 642 mmHg 67%
    21:00 +5°C° 0 mm 1 mps 642 mmHg 71%
    22:00 +5°C° 0 mm 1 mps 642 mmHg 70%
    23:00 +5°C° 0 mm 1 mps 641 mmHg 69%

    Tomorrow, 24 March, Sunday

    Time Temperature Precipitation Wind Pressure Humidity
    00:00 +5°C° 0 mm 1 mps 641 mmHg 69%
    01:00 +5°C° 0 mm 1 mps 641 mmHg 67%
    02:00 +5°C° 0 mm 1 mps 641 mmHg 65%
    03:00 +4°C° 0 mm 1 mps 641 mmHg 63%
    04:00 +4°C° 0 mm 1 mps 641 mmHg 61%
    05:00 +4°C° 0 mm 1 mps 641 mmHg 60%
    06:00 +5°C° 0 mm 1 mps 641 mmHg 58%
    07:00 +7°C° 0 mm 1 mps 642 mmHg 52%
    08:00 +10°C° 0 mm 1 mps 643 mmHg 45%
    09:00 +12°C° 0 mm 1 mps 644 mmHg 38%
    10:00 +13°C° 0 mm 1 mps 644 mmHg 36%
    11:00 +15°C° 0 mm 1 mps 645 mmHg 35%
    12:00 +16°C° 0 mm 1 mps 645 mmHg 33%
    13:00 +15°C° 0.1 mm 1 mps 644 mmHg 37%
    14:00 +15°C° 0.1 mm 1 mps 644 mmHg 40%
    15:00 +14°C° 0.1 mm 1 mps 643 mmHg 43%
    16:00 +12°C° 0.6 mm 1 mps 643 mmHg 54%
    17:00 +10°C° 0.6 mm 1 mps 642 mmHg 65%
    18:00 +9°C° 0.6 mm 1 mps 641 mmHg 76%
    19:00 +8°C° 0.2 mm 1 mps 641 mmHg 81%
    20:00 +7°C° 0.2 mm 1 mps 641 mmHg 86%
    21:00 +6°C° 0.2 mm 1 mps 641 mmHg 90%
    22:00 +5°C° 0 mm 1 mps 641 mmHg 91%
    23:00 +5°C° 0 mm 1 mps 641 mmHg 91%

    Day after tomorrow, 25 March, Monday

    Time Temperature Precipitation Wind Pressure Humidity
    00:00 +4°C° 0 mm 1 mps 640 mmHg 91%
    01:00 +4°C° 0 mm 1 mps 640 mmHg 87%
    02:00 +2°C° 0 mm 2 mps 640 mmHg 83%
    03:00 +2°C° 0 mm 2 mps 639 mmHg 80%
    04:00 +2°C° 0 mm 2 mps 639 mmHg 77%
    05:00 +1°C° 0 mm 2 mps 639 mmHg 74%
    06:00 +1°C° 0 mm 2 mps 639 mmHg 72%
    07:00 +3°C° 0 mm 2 mps 640 mmHg 65%
    08:00 +6°C° 0 mm 2 mps 641 mmHg 58%
    09:00 +8°C° 0 mm 2 mps 642 mmHg 51%
    10:00 +9°C° 0 mm 2 mps 642 mmHg 49%
    11:00 +10°C° 0 mm 2 mps 642 mmHg 47%
    12:00 +12°C° 0 mm 2 mps 642 mmHg 44%
    13:00 +12°C° 0 mm 2 mps 642 mmHg 46%
    14:00 +10°C° 0 mm 3 mps 641 mmHg 48%
    15:00 +10°C° 0 mm 3 mps 640 mmHg 50%
    16:00 +8°C° 0 mm 3 mps 640 mmHg 57%
    17:00 +5°C° 0 mm 3 mps 639 mmHg 65%
    18:00 +3°C° 0 mm 3 mps 638 mmHg 73%
    19:00 +2°C° 0 mm 3 mps 639 mmHg 75%
    20:00 +1°C° 0 mm 3 mps 639 mmHg 77%
    21:00 0°C° 0 mm 3 mps 639 mmHg 80%
    22:00 0°C° 0 mm 3 mps 639 mmHg 81%
    23:00 -1°C° 0 mm 4 mps 639 mmHg 82%

    26 March, Tuesday

    Time Temperature Precipitation Wind Pressure Humidity
    00:00 -1°C° 0 mm 4 mps 640 mmHg 83%
    01:00 -2°C° 0 mm 4 mps 640 mmHg 82%
    02:00 -2°C° 0 mm 4 mps 639 mmHg 81%
    03:00 -3°C° 0 mm 4 mps 639 mmHg 80%
    04:00 -3°C° 0 mm 4 mps 639 mmHg 72%
    05:00 -4°C° 0 mm 4 mps 639 mmHg 65%
    06:00 -4°C° 0 mm 3 mps 639 mmHg 58%
    07:00 -2°C° 0 mm 4 mps 640 mmHg 46%
    08:00 0°C° 0 mm 4 mps 641 mmHg 35%
    09:00 +3°C° 0 mm 4 mps 642 mmHg 24%
    10:00 +5°C° 0 mm 4 mps 642 mmHg 22%
    11:00 +6°C° 0 mm 4 mps 643 mmHg 19%
    12:00 +8°C° 0 mm 4 mps 643 mmHg 17%
    13:00 +9°C° 0 mm 3 mps 643 mmHg 19%
    14:00 +9°C° 0 mm 3 mps 642 mmHg 21%
    15:00 +9°C° 0 mm 3 mps 642 mmHg 23%
    16:00 +7°C° 0 mm 3 mps 642 mmHg 32%
    17:00 +4°C° 0 mm 2 mps 641 mmHg 40%
    18:00 +2°C° 0 mm 2 mps 641 mmHg 49%
    19:00 +2°C° 0 mm 2 mps 641 mmHg 51%
    20:00 +1°C° 0 mm 2 mps 641 mmHg 53%
    21:00 -1°C° 0 mm 2 mps 641 mmHg 54%
    22:00 -1°C° 0 mm 2 mps 641 mmHg 54%
    23:00 -1°C° 0 mm 2 mps 641 mmHg 54%

    27 March, Wednesday

    Time Temperature Precipitation Wind Pressure Humidity
    00:00 0°C° 0 mm 1 mps 641 mmHg 53%
    01:00 0°C° 0 mm 1 mps 641 mmHg 55%
    02:00 0°C° 0 mm 1 mps 641 mmHg 56%
    03:00 0°C° 0 mm 1 mps 641 mmHg 57%
    04:00 0°C° 0 mm 1 mps 641 mmHg 55%
    05:00 0°C° 0 mm 1 mps 641 mmHg 53%
    06:00 0°C° 0 mm 1 mps 641 mmHg 51%
    07:00 +3°C° 0 mm 1 mps 643 mmHg 42%
    08:00 +6°C° 0 mm 1 mps 644 mmHg 33%
    09:00 +9°C° 0 mm 1 mps 645 mmHg 24%
    10:00 +10°C° 0 mm 1 mps 645 mmHg 24%
    11:00 +11°C° 0 mm 1 mps 646 mmHg 23%
    12:00 +12°C° 0 mm 2 mps 646 mmHg 23%
    13:00 +12°C° 0 mm 2 mps 645 mmHg 26%
    14:00 +12°C° 0 mm 2 mps 645 mmHg 28%
    15:00 +10°C° 0 mm 2 mps 644 mmHg 31%
    16:00 +8°C° 0 mm 2 mps 644 mmHg 40%
    17:00 +6°C° 0 mm 2 mps 643 mmHg 49%
    18:00 +5°C° 0 mm 1 mps 642 mmHg 59%
    19:00 +4°C° 0 mm 1 mps 642 mmHg 61%
    20:00 +2°C° 0 mm 2 mps 642 mmHg 64%
    21:00 +1°C° 0 mm 2 mps 642 mmHg 66%
    22:00 +1°C° 0 mm 2 mps 642 mmHg 63%
    23:00 +1°C° 0 mm 2 mps 642 mmHg 60%

    28 March, Thursday

    Time Temperature Precipitation Wind Pressure Humidity
    00:00 +1°C° 0 mm 2 mps 642 mmHg 57%
    01:00 +1°C° 0 mm 2 mps 642 mmHg 60%
    02:00 +1°C° 0 mm 2 mps 642 mmHg 63%
    03:00 +1°C° 0 mm 2 mps 642 mmHg 65%
    04:00 +2°C° 0 mm 1 mps 642 mmHg 66%
    05:00 +2°C° 0 mm 1 mps 642 mmHg 66%
    06:00 +2°C° 0 mm 1 mps 642 mmHg 66%
    07:00 +4°C° 0 mm 1 mps 643 mmHg 58%
    08:00 +7°C° 0 mm 1 mps 644 mmHg 49%
    09:00 +9°C° 0 mm 1 mps 645 mmHg 40%
    10:00 +10°C° 0 mm 1 mps 645 mmHg 39%
    11:00 +11°C° 0 mm 1 mps 645 mmHg 38%
    12:00 +12°C° 0 mm 1 mps 645 mmHg 37%
    13:00 +11°C° 0.1 mm 1 mps 644 mmHg 43%
    14:00 +10°C° 0.1 mm 1 mps 643 mmHg 48%
    15:00 +9°C° 0.1 mm 1 mps 643 mmHg 53%
    16:00 +8°C° 0.2 mm 1 mps 642 mmHg 61%
    17:00 +7°C° 0.2 mm 1 mps 642 mmHg 68%
    18:00 +6°C° 0.2 mm 1 mps 642 mmHg 75%
    19:00 +5°C° 0.1 mm 1 mps 642 mmHg 80%
    20:00 +4°C° 0.1 mm 1 mps 642 mmHg 84%
    21:00 +4°C° 0.1 mm 1 mps 642 mmHg 88%
    22:00 +3°C° 0 mm 1 mps 642 mmHg 90%
    23:00 +3°C° 0 mm 1 mps 642 mmHg 92%
    Show more